Location: Madrid
(40.4000°N, 3.6830°W)
Time: 22:49:35
(UTC+01:00)

ISS - Pass Details

Date: 14 January 2018
Orbit: 402 x 407 km, 51.6° (Epoch: 23 January)

Event Time Altitude Azimuth Distance (km) Brightness Sun altitude
Exits shadow 07:49:07 13° 290° (WNW) 1,306 -1.9 -9.0°
Maximum altitude 07:51:46 38° 223° (SW) 641 -3.0 -8.6°
Drops below altitude 10° 07:54:50 10° 154° (SSE) 1,458 -0.3 -8.0°
Sets 07:56:59 0° 146° (SE) 2,315 1.0 -7.6°
